FW7278 Weather Reports


time (UTC)temp
C
wind
direction
speed
KPH
gust
KPH
rain 1hr
cm
rain 24hr
cm
rain mn
cm
humidity
%
barometer
mb
20260505074554 17 167 1.6 12.9 0.00 0.00 0.00 68 1007.1
20260505073056 17 205 3.2 17.7 0.00 0.00 0.00 67 1007.2
20260505071554 18 149 6.4 16.1 0.00 0.00 0.00 66 1006.8
20260505070055 18 136 4.8 16.1 0.00 0.00 0.00 65 1006.9
20260505064601 18 193 6.4 17.7 0.00 0.00 0.00 64 1007.0
20260505063055 18 205 8.0 19.3 0.00 0.00 0.00 64 1007.2
20260505061604 18 192 9.7 24.1 0.00 0.00 0.00 64 1006.8
20260505060058 18 190 11.3 20.9 0.00 0.00 0.00 63 1006.9
20260505054601 19 188 9.7 19.3 0.00 0.00 0.00 63 1006.9
20260505053108 19 196 8.0 19.3 0.00 0.00 0.00 61 1006.8
20260505051552 20 196 12.9 30.6 0.00 0.00 0.00 61 1006.7
20260505041612 20 214 9.7 25.7 0.00 0.00 0.00 59 1007.0
20260505040057 20 178 9.7 24.1 0.00 0.00 0.00 58 1006.9
20260505034601 20 171 12.9 29.0 0.00 0.00 0.00 58 1006.9
20260505033056 20 205 9.7 17.7 0.00 0.00 0.00 58 1006.8
20260505031603 21 205 4.8 20.9 0.00 0.00 0.00 57 1006.7
20260505030057 21 159 6.4 27.4 0.00 0.00 0.00 57 1006.4
20260505024558 21 194 11.3 29.0 0.00 0.00 0.00 56 1006.3
20260505023103 21 185 11.3 25.7 0.00 0.00 0.00 56 1006.3
20260505021556 21 163 6.4 25.7 0.00 0.00 0.00 55 1006.1
20260505020059 21 187 8.0 20.9 0.00 0.00 0.00 54 1006.0
20260505014553 22 161 8.0 17.7 0.00 0.00 0.00 52 1005.8
20260505013056 22 201 8.0 27.4 0.00 0.00 0.00 51 1005.6
20260505011557 22 213 12.9 27.4 0.00 0.00 0.00 51 1005.5
20260505010054 23 178 12.9 27.4 0.00 0.00 0.00 49 1005.4
20260505004552 23 151 12.9 30.6 0.00 0.00 0.00 49 1005.2
20260505003055 23 217 14.5 30.6 0.00 0.00 0.00 48 1005.1
20260505001554 24 188 11.3 30.6 0.00 0.00 0.00 47 1005.0
20260504234624 25 200 14.5 41.8 0.00 0.00 0.00 45 1005.1
20260504233058 25 139 14.5 29.0 0.00 0.00 0.00 44 1005.2
20260504231602 25 194 14.5 38.6 0.00 0.00 0.00 43 1005.4
20260504230049 25 213 19.3 38.6 0.00 0.00 0.00 42 1005.5
20260504224549 26 152 14.5 38.6 0.00 0.00 0.00 42 1005.4
20260504223053 26 161 12.9 37.0 0.00 0.00 0.00 41 1005.6
20260504221558 26 194 16.1 33.8 0.00 0.00 0.00 38 1005.5
20260504220056 26 186 16.1 29.0 0.00 0.00 0.00 37 1005.5
20260504214551 26 171 11.3 30.6 0.00 0.00 0.00 37 1005.7
20260504213054 26 150 17.7 37.0 0.00 0.00 0.00 36 1005.5
20260504211553 26 196 12.9 38.6 0.00 0.00 0.00 37 1005.8
20260504210109 26 184 11.3 33.8 0.00 0.00 0.00 38 1006.1
20260504204601 26 198 12.9 27.4 0.00 0.00 0.00 37 1006.7
20260504203053 26 155 9.7 32.2 0.00 0.00 0.00 37 1007.2
20260504201554 26 174 12.9 40.2 0.00 0.00 0.00 35 1007.2
20260504200051 27 114 14.5 43.5 0.00 0.00 0.00 36 1006.9
20260504194609 27 204 14.5 37.0 0.00 0.00 0.00 36 1006.7
20260504193058 27 203 16.1 46.7 0.00 0.00 0.00 35 1006.6
20260504191558 27 217 20.9 53.1 0.00 0.00 0.00 37 1006.9
20260504190125 26 178 25.7 49.9 0.00 0.00 0.00 36 1006.8
20260504184558 26 150 22.5 46.7 0.00 0.00 0.00 35 1006.5
20260504183054 26 121 17.7 62.8 0.00 0.00 0.00 38 1006.3
20260504181603 26 221 20.9 54.7 0.00 0.00 0.00 38 1006.7
20260504180201 26 188 16.1 46.7 0.00 0.00 0.00 38 1007.0
20260504174558 26 192 16.1 33.8 0.00 0.00 0.00 40 1007.3
20260504173108 26 189 14.5 40.2 0.00 0.00 0.00 42 1007.8
20260504171559 25 164 17.7 32.2 0.00 0.00 0.00 43 1008.1
20260504140115 18 186 8.0 17.7 0.00 0.00 0.00 68 1009.9
20260504120111 15 165 4.8 11.3 0.00 0.00 0.00 75 1010.3
20260504081553 16 150 6.4 12.9 0.00 0.00 0.00 69 1009.7